| time (UTC) | temp F | wind direction | speed knots | gust knots | rain 1hr in | rain 24hr in | rain mn in | humidity % | barometer mb |
| 20260508151601 | 66 | 169 | 1.7 | 4.3 | 0.00 | 0.01 | 0.00 | 68 | 1017.9 |
| 20260508150603 | 65 | 168 | 1.7 | 5.2 | 0.00 | 0.01 | 0.00 | 68 | 1017.9 |
| 20260508150054 | 65 | 107 | 1.7 | 5.2 | 0.00 | 0.01 | 0.00 | 69 | 1017.9 |
| 20260508145602 | 64 | 158 | 1.7 | 5.2 | 0.00 | 0.03 | 0.00 | 68 | 1018.0 |
| 20260508145052 | 64 | 164 | 1.7 | 5.2 | 0.00 | 0.03 | 0.00 | 70 | 1017.9 |
| 20260508144544 | 63 | 114 | 1.7 | 3.5 | 0.00 | 0.03 | 0.00 | 71 | 1017.9 |
| 20260508144051 | 63 | 104 | 0.9 | 1.7 | 0.00 | 0.03 | 0.00 | 74 | 1018.0 |
| 20260508143603 | 63 | 104 | 0.9 | 1.7 | 0.00 | 0.03 | 0.00 | 74 | 1018.1 |
| 20260508142545 | 62 | 100 | 0.9 | 2.6 | 0.00 | 0.03 | 0.00 | 75 | 1018.1 |
| 20260508142055 | 62 | 103 | 0.9 | 2.6 | 0.00 | 0.03 | 0.00 | 74 | 1018.2 |
| 20260508141545 | 62 | 112 | 0.9 | 2.6 | 0.00 | 0.03 | 0.00 | 77 | 1018.2 |
| 20260508141056 | 61 | 142 | 0.0 | 0.0 | 0.00 | 0.03 | 0.00 | 76 | 1018.1 |
| 20260508140546 | 61 | 125 | 0.0 | 1.7 | 0.00 | 0.03 | 0.00 | 75 | 1018.0 |
| 20260508140053 | 61 | 125 | 0.9 | 1.7 | 0.00 | 0.03 | 0.00 | 76 | 1018.0 |
| 20260508135601 | 61 | 14 | 0.0 | 0.9 | 0.00 | 0.05 | 0.00 | 79 | 1018.0 |
| 20260508135054 | 60 | 14 | 0.0 | 0.9 | 0.00 | 0.05 | 0.00 | 78 | 1018.0 |
| 20260508134606 | 60 | 1 | 0.0 | 0.9 | 0.00 | 0.05 | 0.00 | 80 | 1018.0 |
| 20260508134053 | 60 | 3 | 0.0 | 0.9 | 0.00 | 0.05 | 0.00 | 80 | 1018.1 |
| 20260508133100 | 60 | 1 | 0.0 | 0.9 | 0.00 | 0.05 | 0.00 | 81 | 1018.2 |
| 20260508132549 | 59 | 1 | 0.0 | 0.9 | 0.00 | 0.05 | 0.00 | 83 | 1018.1 |
| 20260508132055 | 59 | 1 | 0.0 | 0.9 | 0.00 | 0.05 | 0.00 | 84 | 1018.1 |
| 20260508131056 | 58 | 212 | 0.0 | 0.9 | 0.00 | 0.05 | 0.00 | 84 | 1017.9 |
| 20260508130547 | 58 | 266 | 0.0 | 0.9 | 0.00 | 0.05 | 0.00 | 84 | 1018.0 |
| 20260508130058 | 58 | 264 | 0.0 | 0.9 | 0.00 | 0.05 | 0.00 | 85 | 1018.0 |
| 20260508124544 | 57 | 264 | 0.0 | 0.9 | 0.00 | 0.05 | 0.00 | 85 | 1017.9 |
| 20260508124056 | 57 | 264 | 0.0 | 0.9 | 0.00 | 0.05 | 0.00 | 87 | 1017.9 |
| 20260508123607 | 57 | 264 | 0.0 | 0.9 | 0.00 | 0.05 | 0.00 | 87 | 1017.8 |
| 20260508122600 | 56 | 242 | 0.0 | 0.0 | 0.00 | 0.05 | 0.00 | 90 | 1017.9 |
| 20260508122049 | 56 | 242 | 0.0 | 0.0 | 0.00 | 0.05 | 0.00 | 92 | 1017.7 |
| 20260508121552 | 55 | 242 | 0.0 | 0.0 | 0.00 | 0.05 | 0.00 | 93 | 1017.8 |
| 20260508121100 | 55 | 242 | 0.0 | 0.0 | 0.00 | 0.05 | 0.00 | 94 | 1017.7 |
| 20260508120549 | 54 | 242 | 0.0 | 0.0 | 0.00 | 0.05 | 0.00 | 94 | 1017.7 |
| 20260508120058 | 54 | 37 | 0.0 | 0.0 | 0.00 | 0.05 | 0.00 | 94 | 1017.7 |
| 20260508115055 | 53 | 37 | 0.0 | 0.0 | 0.00 | 0.09 | 0.00 | 94 | 1017.6 |
| 20260508114547 | 53 | 37 | 0.0 | 0.0 | 0.00 | 0.09 | 0.00 | 94 | 1017.5 |
| 20260508114057 | 53 | 37 | 0.0 | 0.0 | 0.00 | 0.09 | 0.00 | 94 | 1017.3 |
| 20260508113056 | 53 | 37 | 0.0 | 0.0 | 0.00 | 0.09 | 0.00 | 94 | 1017.0 |
| 20260508112544 | 53 | 37 | 0.0 | 0.0 | 0.00 | 0.09 | 0.00 | 94 | 1016.8 |
| 20260508112055 | 53 | 37 | 0.0 | 0.0 | 0.00 | 0.09 | 0.00 | 94 | 1016.7 |
| 20260508111601 | 53 | 37 | 0.0 | 0.0 | 0.00 | 0.09 | 0.00 | 93 | 1016.6 |
| 20260508111051 | 53 | 37 | 0.0 | 0.0 | 0.00 | 0.09 | 0.00 | 93 | 1016.5 |
| 20260508110603 | 53 | 37 | 0.0 | 0.0 | 0.00 | 0.09 | 0.00 | 93 | 1016.3 |
| 20260508110126 | 53 | 37 | 0.0 | 0.0 | 0.00 | 0.09 | 0.00 | 94 | 1016.2 |
| 20260508110024 | 52 | 37 | 0.0 | 0.0 | 0.00 | 0.09 | 0.00 | 94 | 1015.5 |
| 20260508105547 | 53 | 37 | 0.0 | 0.0 | 0.00 | 0.09 | 0.00 | 93 | 1016.1 |
| 20260508105059 | 53 | 37 | 0.0 | 0.0 | 0.00 | 0.09 | 0.00 | 93 | 1016.1 |
| 20260508104545 | 53 | 37 | 0.0 | 0.0 | 0.00 | 0.09 | 0.00 | 93 | 1016.1 |
| 20260508104053 | 53 | 37 | 0.0 | 0.0 | 0.00 | 0.09 | 0.00 | 93 | 1016.0 |
| 20260508103602 | 53 | 37 | 0.0 | 0.0 | 0.00 | 0.09 | 0.00 | 93 | 1015.8 |
| 20260508103515 | 53 | 37 | 0.0 | 0.0 | 0.00 | 0.09 | 0.00 | 93 | 1015.1 |
| 20260508102553 | 53 | 37 | 0.0 | 0.0 | 0.00 | 0.09 | 0.00 | 93 | 1015.5 |
| 20260508102510 | 53 | 37 | 0.0 | 0.0 | 0.00 | 0.09 | 0.00 | 93 | 1014.8 |
| 20260508101059 | 53 | 37 | 0.0 | 0.0 | 0.00 | 0.09 | 0.00 | 93 | 1015.4 |
| 20260508100551 | 53 | 37 | 0.0 | 0.0 | 0.00 | 0.09 | 0.00 | 93 | 1015.4 |
| 20260508100100 | 53 | 37 | 0.0 | 0.0 | 0.00 | 0.09 | 0.00 | 92 | 1015.5 |
| 20260508095547 | 53 | 37 | 0.0 | 0.0 | 0.00 | 0.16 | 0.00 | 92 | 1015.4 |
| 20260508095057 | 54 | 37 | 0.0 | 0.0 | 0.00 | 0.16 | 0.00 | 92 | 1015.3 |
| 20260508094603 | 54 | 37 | 0.0 | 0.0 | 0.00 | 0.16 | 0.00 | 92 | 1015.2 |
| 20260508093603 | 54 | 37 | 0.0 | 0.0 | 0.00 | 0.16 | 0.00 | 92 | 1015.1 |
| 20260508093054 | 54 | 37 | 0.0 | 0.0 | 0.00 | 0.16 | 0.00 | 92 | 1015.2 |
| 20260508092602 | 54 | 37 | 0.0 | 0.0 | 0.00 | 0.16 | 0.00 | 91 | 1015.1 |
| 20260508092052 | 54 | 37 | 0.0 | 0.0 | 0.00 | 0.16 | 0.00 | 91 | 1015.0 |
| 20260508091600 | 54 | 37 | 0.0 | 0.0 | 0.00 | 0.16 | 0.00 | 91 | 1014.9 |
| 20260508091048 | 55 | 37 | 0.0 | 0.0 | 0.00 | 0.16 | 0.00 | 91 | 1015.0 |
| 20260508090105 | 55 | 37 | 0.0 | 0.0 | 0.00 | 0.16 | 0.00 | 91 | 1015.0 |
| 20260508085551 | 56 | 37 | 0.0 | 0.0 | 0.00 | 0.25 | 0.00 | 91 | 1015.0 |
| 20260508085058 | 56 | 37 | 0.0 | 0.0 | 0.00 | 0.25 | 0.00 | 91 | 1015.0 |
| 20260508084057 | 56 | 37 | 0.0 | 0.0 | 0.00 | 0.25 | 0.00 | 91 | 1014.9 |
| 20260508083602 | 56 | 37 | 0.0 | 0.0 | 0.00 | 0.25 | 0.00 | 91 | 1014.8 |
| 20260508083050 | 56 | 37 | 0.0 | 0.0 | 0.00 | 0.25 | 0.00 | 91 | 1014.9 |
| 20260508082558 | 56 | 37 | 0.0 | 0.0 | 0.00 | 0.25 | 0.00 | 91 | 1014.9 |
| 20260508081051 | 56 | 37 | 0.0 | 0.0 | 0.00 | 0.25 | 0.00 | 90 | 1014.7 |
| 20260508075049 | 56 | 37 | 0.0 | 0.0 | 0.00 | 0.26 | 0.00 | 90 | 1014.5 |
| 20260508074602 | 56 | 37 | 0.0 | 0.0 | 0.00 | 0.26 | 0.00 | 91 | 1014.6 |
| 20260508074050 | 56 | 37 | 0.0 | 0.0 | 0.00 | 0.26 | 0.00 | 90 | 1014.7 |
| 20260508073559 | 56 | 37 | 0.0 | 0.0 | 0.00 | 0.26 | 0.00 | 91 | 1014.6 |
| 20260508073102 | 56 | 37 | 0.0 | 0.0 | 0.00 | 0.26 | 0.00 | 91 | 1014.7 |
| 20260508072546 | 56 | 37 | 0.0 | 0.0 | 0.00 | 0.26 | 0.00 | 90 | 1014.7 |
| 20260508072054 | 56 | 37 | 0.0 | 0.0 | 0.00 | 0.26 | 0.00 | 91 | 1014.6 |
| 20260508071603 | 56 | 37 | 0.0 | 0.0 | 0.00 | 0.26 | 0.00 | 91 | 1014.7 |
| 20260508071053 | 56 | 37 | 0.0 | 0.0 | 0.00 | 0.26 | 0.00 | 91 | 1014.7 |
| 20260508070545 | 56 | 37 | 0.0 | 0.0 | 0.00 | 0.26 | 0.00 | 92 | 1014.8 |
| 20260508070053 | 56 | 37 | 0.0 | 0.0 | 0.00 | 0.26 | 0.00 | 92 | 1014.8 |
| 20260508065602 | 56 | 37 | 0.0 | 0.0 | 0.00 | 0.30 | 0.00 | 92 | 1015.0 |
| 20260508065052 | 56 | 37 | 0.0 | 0.0 | 0.00 | 0.30 | 0.00 | 92 | 1015.0 |
| 20260508064049 | 56 | 37 | 0.0 | 0.0 | 0.00 | 0.30 | 0.00 | 92 | 1015.2 |
| 20260508063517 | 56 | 37 | 0.0 | 0.0 | 0.00 | 0.30 | 0.00 | 92 | 1014.3 |
| 20260508062552 | 57 | 37 | 0.0 | 0.0 | 0.00 | 0.30 | 0.00 | 92 | 1015.0 |
| 20260508062101 | 57 | 37 | 0.0 | 0.0 | 0.00 | 0.30 | 0.00 | 92 | 1015.2 |
| 20260508061549 | 57 | 37 | 0.0 | 0.0 | 0.00 | 0.30 | 0.00 | 92 | 1015.2 |
| 20260508061054 | 57 | 37 | 0.0 | 0.0 | 0.00 | 0.30 | 0.00 | 92 | 1015.3 |
| 20260508060603 | 57 | 37 | 0.0 | 0.0 | 0.00 | 0.30 | 0.00 | 92 | 1015.4 |
| 20260508060054 | 57 | 37 | 0.0 | 0.0 | 0.00 | 0.30 | 0.00 | 92 | 1015.2 |
| 20260508055600 | 57 | 37 | 0.0 | 0.0 | 0.00 | 0.42 | 0.00 | 92 | 1015.3 |
| 20260508055049 | 57 | 37 | 0.0 | 0.0 | 0.00 | 0.42 | 0.00 | 92 | 1015.3 |
| 20260508054558 | 57 | 37 | 0.0 | 0.0 | 0.00 | 0.42 | 0.00 | 92 | 1015.1 |
| 20260508054050 | 57 | 37 | 0.0 | 0.0 | 0.00 | 0.42 | 0.00 | 92 | 1015.4 |
| 20260508053600 | 57 | 37 | 0.0 | 0.0 | 0.00 | 0.42 | 0.00 | 92 | 1015.3 |
| 20260508053106 | 57 | 37 | 0.0 | 0.0 | 0.00 | 0.42 | 0.00 | 92 | 1015.3 |
| 20260508052554 | 57 | 37 | 0.0 | 0.0 | 0.00 | 0.42 | 0.00 | 92 | 1015.3 |
| 20260508052045 | 57 | 37 | 0.0 | 0.0 | 0.00 | 0.42 | 0.00 | 92 | 1015.3 |
| 20260508051049 | 57 | 37 | 0.0 | 0.0 | 0.00 | 0.42 | 0.00 | 91 | 1015.3 |
| 20260508050600 | 58 | 37 | 0.0 | 0.0 | 0.00 | 0.42 | 0.00 | 91 | 1015.3 |
| 20260508050107 | 58 | 37 | 0.0 | 0.0 | 0.00 | 0.42 | 0.00 | 91 | 1015.3 |
| 20260508045101 | 58 | 37 | 0.0 | 0.0 | 0.00 | 0.50 | 0.00 | 90 | 1015.5 |
| 20260508044551 | 58 | 37 | 0.0 | 0.0 | 0.00 | 0.50 | 0.00 | 91 | 1015.5 |
| 20260508044059 | 58 | 37 | 0.0 | 0.0 | 0.00 | 0.50 | 0.00 | 90 | 1015.3 |
| 20260508043547 | 58 | 37 | 0.0 | 0.0 | 0.00 | 0.50 | 0.00 | 90 | 1015.2 |
| 20260508043055 | 58 | 37 | 0.0 | 0.0 | 0.00 | 0.50 | 0.00 | 90 | 1015.1 |
| 20260508042557 | 59 | 37 | 0.0 | 0.0 | 0.00 | 0.50 | 0.00 | 90 | 1015.1 |
| 20260508042047 | 59 | 37 | 0.0 | 0.0 | 0.00 | 0.50 | 0.00 | 90 | 1015.0 |
| 20260508041557 | 59 | 37 | 0.0 | 0.0 | 0.00 | 0.50 | 0.00 | 89 | 1015.1 |
| 20260508041047 | 59 | 37 | 0.0 | 0.0 | 0.00 | 0.50 | 0.00 | 89 | 1015.1 |
| 20260508040600 | 59 | 37 | 0.0 | 0.0 | 0.00 | 0.50 | 0.00 | 90 | 1015.2 |
| 20260508040123 | 59 | 37 | 0.0 | 0.0 | 0.00 | 0.50 | 0.00 | 90 | 1015.3 |
| 20260508035601 | 59 | 37 | 0.0 | 0.0 | 0.00 | 0.50 | 0.50 | 89 | 1015.3 |
| 20260508035048 | 60 | 37 | 0.0 | 0.0 | 0.00 | 0.50 | 0.50 | 89 | 1015.2 |
| 20260508034556 | 60 | 37 | 0.0 | 0.0 | 0.00 | 0.50 | 0.50 | 89 | 1015.2 |
| 20260508033559 | 60 | 37 | 0.0 | 0.0 | 0.00 | 0.50 | 0.50 | 89 | 1015.2 |
| 20260508032556 | 60 | 37 | 0.0 | 0.0 | 0.00 | 0.50 | 0.50 | 89 | 1015.0 |
| 20260508032100 | 60 | 37 | 0.0 | 0.0 | 0.00 | 0.50 | 0.50 | 89 | 1015.0 |
| 20260508031551 | 60 | 37 | 0.0 | 0.0 | 0.00 | 0.50 | 0.50 | 89 | 1015.0 |
| 20260508031102 | 60 | 37 | 0.0 | 0.0 | 0.00 | 0.50 | 0.50 | 88 | 1014.9 |
| 20260508030117 | 61 | 37 | 0.0 | 0.0 | 0.00 | 0.50 | 0.50 | 88 | 1014.9 |
| 20260508025556 | 61 | 37 | 0.0 | 0.0 | 0.00 | 0.53 | 0.50 | 88 | 1014.9 |
| 20260508024550 | 61 | 37 | 0.0 | 0.0 | 0.00 | 0.53 | 0.50 | 88 | 1014.8 |
| 20260508024101 | 61 | 37 | 0.0 | 0.0 | 0.00 | 0.53 | 0.50 | 88 | 1014.6 |
| 20260508023552 | 61 | 37 | 0.0 | 0.0 | 0.00 | 0.53 | 0.50 | 88 | 1014.8 |
| 20260508023104 | 61 | 37 | 0.0 | 0.0 | 0.00 | 0.53 | 0.50 | 88 | 1014.5 |
| 20260508022100 | 61 | 37 | 0.0 | 0.0 | 0.00 | 0.53 | 0.50 | 87 | 1014.8 |
| 20260508021549 | 61 | 37 | 0.0 | 0.0 | 0.00 | 0.53 | 0.50 | 87 | 1014.8 |
| 20260508020054 | 62 | 37 | 0.0 | 0.0 | 0.00 | 0.53 | 0.50 | 88 | 1014.7 |
| 20260508015602 | 62 | 37 | 0.0 | 0.0 | 0.00 | 0.66 | 0.50 | 89 | 1014.5 |
| 20260508015053 | 62 | 37 | 0.0 | 0.0 | 0.00 | 0.66 | 0.50 | 87 | 1014.6 |
| 20260508014606 | 62 | 37 | 0.0 | 0.0 | 0.00 | 0.66 | 0.50 | 87 | 1014.4 |
| 20260508013601 | 62 | 37 | 0.0 | 0.0 | 0.00 | 0.66 | 0.50 | 87 | 1014.3 |
| 20260508013051 | 62 | 37 | 0.0 | 0.0 | 0.00 | 0.66 | 0.50 | 86 | 1014.3 |
| 20260508012558 | 63 | 37 | 0.0 | 0.0 | 0.00 | 0.66 | 0.50 | 87 | 1014.2 |
| 20260508012050 | 63 | 37 | 0.0 | 0.0 | 0.00 | 0.66 | 0.50 | 86 | 1014.2 |
| 20260508011559 | 63 | 37 | 0.0 | 0.0 | 0.00 | 0.66 | 0.50 | 86 | 1014.2 |
| 20260508011049 | 64 | 37 | 0.0 | 0.0 | 0.00 | 0.66 | 0.50 | 87 | 1014.1 |
| 20260508010600 | 64 | 37 | 0.0 | 0.0 | 0.00 | 0.66 | 0.50 | 86 | 1014.1 |
| 20260508010050 | 64 | 37 | 0.0 | 0.0 | 0.00 | 0.66 | 0.50 | 85 | 1014.0 |
| 20260508005044 | 64 | 37 | 0.0 | 0.0 | 0.00 | 0.71 | 0.50 | 83 | 1013.9 |
| 20260508004047 | 65 | 37 | 0.0 | 0.0 | 0.00 | 0.71 | 0.50 | 84 | 1013.7 |
| 20260508003558 | 65 | 37 | 0.0 | 0.0 | 0.00 | 0.71 | 0.50 | 84 | 1013.7 |
| 20260508003049 | 65 | 37 | 0.0 | 0.0 | 0.00 | 0.71 | 0.50 | 83 | 1013.7 |
| 20260508002045 | 66 | 37 | 0.0 | 0.9 | 0.00 | 0.71 | 0.50 | 84 | 1013.5 |
| 20260508000557 | 66 | 37 | 0.0 | 0.9 | 0.00 | 0.71 | 0.50 | 84 | 1013.4 |
| 20260508000106 | 67 | 37 | 0.0 | 1.7 | 0.00 | 0.71 | 0.50 | 83 | 1013.3 |
| 20260507235550 | 67 | 37 | 0.0 | 1.7 | 0.00 | 0.71 | 0.50 | 83 | 1013.2 |
| 20260507234605 | 67 | 216 | 0.0 | 1.7 | 0.00 | 0.71 | 0.50 | 83 | 1013.1 |
| 20260507234053 | 68 | 216 | 0.9 | 1.7 | 0.00 | 0.71 | 0.50 | 83 | 1013.0 |
| 20260507233052 | 68 | 283 | 0.0 | 1.7 | 0.00 | 0.71 | 0.50 | 82 | 1012.9 |
| 20260507232600 | 68 | 283 | 0.9 | 1.7 | 0.00 | 0.71 | 0.50 | 83 | 1012.9 |
| 20260507231049 | 69 | 114 | 0.0 | 0.9 | 0.00 | 0.71 | 0.50 | 83 | 1012.7 |
| 20260507230559 | 69 | 114 | 0.0 | 2.6 | 0.00 | 0.71 | 0.50 | 83 | 1012.7 |
| 20260507230048 | 69 | 114 | 0.9 | 2.6 | 0.00 | 0.71 | 0.50 | 83 | 1012.6 |
| 20260507225556 | 69 | 209 | 0.0 | 1.7 | 0.00 | 0.71 | 0.50 | 83 | 1012.6 |
| 20260507225046 | 69 | 183 | 0.0 | 0.9 | 0.00 | 0.71 | 0.50 | 83 | 1012.7 |
| 20260507224557 | 69 | 183 | 0.0 | 5.2 | 0.00 | 0.71 | 0.50 | 82 | 1012.7 |
| 20260507224047 | 69 | 187 | 0.9 | 5.2 | 0.00 | 0.71 | 0.50 | 82 | 1012.6 |
| 20260507223106 | 70 | 280 | 0.9 | 1.7 | 0.00 | 0.71 | 0.50 | 82 | 1012.4 |
| 20260507222551 | 70 | 279 | 0.0 | 2.6 | 0.00 | 0.71 | 0.50 | 82 | 1012.4 |
| 20260507222058 | 70 | 279 | 0.9 | 2.6 | 0.00 | 0.71 | 0.50 | 82 | 1012.4 |
| 20260507221549 | 70 | 271 | 0.9 | 1.7 | 0.00 | 0.71 | 0.50 | 82 | 1012.3 |
| 20260507220550 | 70 | 171 | 0.9 | 3.5 | 0.00 | 0.71 | 0.50 | 82 | 1012.3 |
| 20260507220052 | 70 | 237 | 0.0 | 1.7 | 0.00 | 0.71 | 0.50 | 81 | 1012.3 |
| 20260507215556 | 70 | 237 | 0.9 | 1.7 | 0.00 | 0.71 | 0.50 | 84 | 1012.2 |
| 20260507215107 | 70 | 237 | 0.9 | 1.7 | 0.00 | 0.71 | 0.50 | 83 | 1012.2 |
| 20260507214552 | 70 | 237 | 0.0 | 3.5 | 0.00 | 0.71 | 0.50 | 82 | 1012.1 |
| 20260507213105 | 70 | 127 | 0.0 | 3.5 | 0.00 | 0.71 | 0.50 | 83 | 1012.2 |
| 20260507212608 | 70 | 120 | 0.9 | 3.5 | 0.00 | 0.71 | 0.50 | 82 | 1012.3 |
| 20260507212055 | 69 | 203 | 0.0 | 1.7 | 0.00 | 0.71 | 0.50 | 83 | 1012.2 |
| 20260507211545 | 69 | 132 | 0.0 | 3.5 | 0.00 | 0.71 | 0.50 | 84 | 1012.2 |
| 20260507211056 | 69 | 226 | 0.9 | 3.5 | 0.00 | 0.71 | 0.50 | 86 | 1012.1 |
| 20260507210606 | 69 | 197 | 0.0 | 1.7 | 0.00 | 0.71 | 0.50 | 86 | 1012.1 |
| 20260507210126 | 68 | 192 | 0.9 | 2.6 | 0.00 | 0.71 | 0.50 | 85 | 1012.1 |
| 20260507205607 | 68 | 256 | 0.0 | 1.7 | 0.00 | 0.71 | 0.50 | 86 | 1012.1 |
| 20260507205052 | 69 | 257 | 0.9 | 2.6 | 0.00 | 0.71 | 0.50 | 85 | 1012.1 |
| 20260507204558 | 69 | 257 | 1.7 | 3.5 | 0.00 | 0.71 | 0.50 | 84 | 1012.2 |
| 20260507204046 | 70 | 250 | 0.9 | 5.2 | 0.00 | 0.71 | 0.50 | 82 | 1012.0 |
| 20260507203556 | 70 | 145 | 1.7 | 6.1 | 0.00 | 0.71 | 0.50 | 82 | 1012.1 |
| 20260507203106 | 70 | 155 | 2.6 | 6.1 | 0.00 | 0.71 | 0.50 | 84 | 1012.2 |
| 20260507202549 | 69 | 124 | 0.9 | 4.3 | 0.00 | 0.71 | 0.50 | 85 | 1012.2 |
| 20260507201553 | 69 | 308 | 0.9 | 3.5 | 0.00 | 0.71 | 0.50 | 86 | 1012.1 |
| 20260507200550 | 68 | 258 | 0.9 | 1.7 | 0.00 | 0.71 | 0.50 | 86 | 1012.3 |
| 20260507195606 | 68 | 196 | 0.9 | 1.7 | 0.00 | 0.71 | 0.50 | 87 | 1012.4 |
| 20260507194547 | 68 | 327 | 0.9 | 2.6 | 0.00 | 0.71 | 0.50 | 87 | 1012.4 |
| 20260507194057 | 68 | 327 | 0.9 | 2.6 | 0.00 | 0.71 | 0.50 | 88 | 1012.4 |
| 20260507193602 | 68 | 326 | 0.9 | 1.7 | 0.00 | 0.71 | 0.50 | 88 | 1012.4 |
| 20260507193051 | 68 | 326 | 0.9 | 2.6 | 0.00 | 0.71 | 0.50 | 89 | 1012.4 |
| 20260507192600 | 68 | 345 | 0.0 | 1.7 | 0.00 | 0.71 | 0.50 | 89 | 1012.4 |
| 20260507192047 | 68 | 345 | 0.9 | 1.7 | 0.00 | 0.71 | 0.50 | 89 | 1012.4 |
| 20260507191558 | 68 | 345 | 0.9 | 3.5 | 0.00 | 0.71 | 0.50 | 88 | 1012.4 |
| 20260507191105 | 68 | 326 | 0.9 | 3.5 | 0.00 | 0.71 | 0.50 | 89 | 1012.2 |
| 20260507190553 | 69 | 291 | 0.9 | 2.6 | 0.00 | 0.71 | 0.50 | 87 | 1012.3 |
| 20260507185549 | 69 | 333 | 0.0 | 0.0 | 0.00 | 0.71 | 0.50 | 89 | 1012.2 |
| 20260507185051 | 69 | 57 | 0.0 | 0.0 | 0.01 | 0.71 | 0.50 | 89 | 1012.1 |
| 20260507184602 | 69 | 64 | 0.0 | 0.9 | 0.01 | 0.71 | 0.50 | 89 | 1012.2 |
| 20260507184052 | 68 | 61 | 0.0 | 1.7 | 0.01 | 0.71 | 0.50 | 89 | 1012.3 |
| 20260507183603 | 68 | 124 | 0.0 | 1.7 | 0.01 | 0.71 | 0.50 | 89 | 1012.2 |
| 20260507183052 | 68 | 244 | 0.0 | 1.7 | 0.01 | 0.71 | 0.50 | 89 | 1012.2 |
| 20260507182557 | 69 | 244 | 0.9 | 1.7 | 0.01 | 0.71 | 0.50 | 89 | 1012.2 |
| 20260507182105 | 69 | 244 | 0.0 | 1.7 | 0.01 | 0.71 | 0.50 | 89 | 1012.2 |
| 20260507181103 | 69 | 222 | 0.0 | 2.6 | 0.01 | 0.71 | 0.50 | 89 | 1012.1 |
| 20260507180552 | 69 | 221 | 0.9 | 2.6 | 0.01 | 0.71 | 0.50 | 89 | 1012.1 |
| 20260507175551 | 70 | 167 | 0.0 | 3.5 | 0.01 | 0.71 | 0.50 | 88 | 1012.2 |
| 20260507175100 | 70 | 193 | 0.9 | 3.5 | 0.00 | 0.70 | 0.49 | 87 | 1012.2 |
| 20260507174602 | 70 | 188 | 1.7 | 5.2 | 0.00 | 0.70 | 0.49 | 88 | 1012.2 |
| 20260507174051 | 70 | 151 | 0.9 | 5.2 | 0.00 | 0.70 | 0.49 | 89 | 1012.1 |
| 20260507173558 | 70 | 148 | 0.0 | 1.7 | 0.00 | 0.70 | 0.49 | 89 | 1012.1 |
| 20260507173503 | 69 | 148 | 0.0 | 1.7 | 0.00 | 0.70 | 0.49 | 90 | 1010.8 |
| 20260507173108 | 70 | 148 | 0.9 | 1.7 | 0.00 | 0.70 | 0.49 | 88 | 1012.1 |
| 20260507172551 | 70 | 59 | 0.0 | 3.5 | 0.00 | 0.70 | 0.49 | 88 | 1012.2 |
| 20260507172057 | 70 | 134 | 0.9 | 7.0 | 0.00 | 0.70 | 0.49 | 87 | 1012.3 |
| 20260507171548 | 71 | 167 | 2.6 | 7.0 | 0.00 | 0.70 | 0.49 | 86 | 1012.2 |
| 20260507171055 | 71 | 177 | 1.7 | 4.3 | 0.00 | 0.70 | 0.49 | 85 | 1012.2 |
| 20260507170128 | 71 | 167 | 2.6 | 5.2 | 0.00 | 0.70 | 0.49 | 91 | 1012.3 |
| 20260507170022 | 70 | 158 | 2.6 | 5.2 | 0.00 | 0.70 | 0.49 | 91 | 1011.0 |
| 20260507165551 | 69 | 235 | 0.0 | 0.0 | 0.00 | 0.70 | 0.49 | 90 | 1012.5 |
| 20260507165059 | 69 | 235 | 0.0 | 6.1 | 0.00 | 0.70 | 0.49 | 89 | 1012.4 |
| 20260507164603 | 70 | 239 | 0.0 | 6.1 | 0.00 | 0.70 | 0.49 | 89 | 1012.3 |
| 20260507163602 | 71 | 212 | 0.9 | 3.5 | 0.00 | 0.70 | 0.49 | 90 | 1012.2 |
| 20260507163053 | 69 | 165 | 0.9 | 3.5 | 0.00 | 0.70 | 0.49 | 92 | 1012.2 |
| 20260507162556 | 68 | 269 | 0.0 | 1.7 | 0.00 | 0.70 | 0.49 | 91 | 1012.3 |
| 20260507162102 | 69 | 163 | 0.0 | 2.6 | 0.00 | 0.70 | 0.49 | 91 | 1012.3 |
| 20260507161553 | 69 | 164 | 0.0 | 1.7 | 0.00 | 0.70 | 0.49 | 91 | 1012.4 |
| 20260507161102 | 69 | 134 | 0.9 | 1.7 | 0.00 | 0.70 | 0.49 | 92 | 1012.4 |
| 20260507160551 | 69 | 134 | 0.9 | 1.7 | 0.00 | 0.70 | 0.49 | 93 | 1012.5 |
| 20260507155548 | 68 | 168 | 0.0 | 0.9 | 0.00 | 0.70 | 0.49 | 94 | 1012.5 |
| 20260507155055 | 68 | 168 | 0.0 | 4.3 | 0.00 | 0.70 | 0.49 | 94 | 1012.4 |
| 20260507154600 | 68 | 168 | 1.7 | 4.3 | 0.00 | 0.70 | 0.49 | 95 | 1012.4 |
| 20260507154049 | 67 | 173 | 0.0 | 0.0 | 0.00 | 0.70 | 0.49 | 94 | 1012.3 |
| 20260507153601 | 68 | 173 | 0.0 | 0.0 | 0.01 | 0.70 | 0.49 | 95 | 1012.3 |
| 20260507153050 | 68 | 172 | 0.0 | 0.0 | 0.02 | 0.70 | 0.49 | 96 | 1012.1 |
| 20260507152558 | 67 | 172 | 0.0 | 0.0 | 0.02 | 0.70 | 0.49 | 96 | 1011.8 |
| 20260507152048 | 66 | 172 | 0.0 | 2.6 | 0.02 | 0.70 | 0.49 | 96 | 1011.8 |